Tracking 33180 objects as of 11-Feb-2026
HD Live streaming from Space Station
objects crossing your sky now

STARLINK-30113

Track STARLINK-30113 now!
10-day predictions
STARLINK-30113 is classified as:


NORAD ID: 56291
Int'l Code: 2023-056F
Perigee: 565.2 km
Apogee: 567.2 km
Inclination: 43.0 °
Period: 95.8 minutes
Semi major axis: 6937 km
RCS: Unknown
Launch date: April 19, 2023
Source: United States (US)
Launch site: AIR FORCE EASTERN TEST RANGE (AFETR)
Your satellite tracking list
Your tracking list is empty




NASA's NSSDC Master Catalog

Two Line Element Set (TLE):
1 56291U 23056F   26041.28240135  .00000598  00000-0  59333-4 0  9996
2 56291  43.0019 358.9908 0001412 264.3362  95.7320 15.02534800155902
Source of the keplerian elements: AFSPC